Location: Central Coast NSW, Australia
(33.2407°S, 151.4316°E)
Time: 17:45:52
(UTC+11:00)

ISS - Visible Passes

Search period start: 21 November 2018 00:00
Search period end: 01 December 2018 00:00
Orbit: 401 x 409 km, 51.6° (Epoch: 21 November)

Date Brightness Start Highest point End Pass type
(mag) Time Alt. Az. Time Alt. Az. Time Alt. Az.
27 Nov -2.0 05:04:03 10° N 05:06:52 26° NE 05:09:43 10° ESE visible
28 Nov -1.1 04:13:25 10° NNE 04:14:54 12° NE 04:16:23 10° E visible
29 Nov -3.7 04:55:43 11° NW 04:58:52 81° NE 05:02:13 10° SE visible
30 Nov -2.6 04:05:45 27° N 04:06:46 34° NE 04:09:50 10° ESE visible
